DFH-1

Satellite information

Favourite Embed

Satellite Type and Status

PAYLOADIN ORBIT

Key statistics

Satellite DFH-1 at a glance.

Uptime

20273

Days in orbit

Revolutions

≈ 13.1

Per day

Orbit

LEO

Low Earth Orbit

Inclination

68.4

Latest

Satellite identification and parameters

Extended collection of information and parameters for DFH-1.

Object identification

Identified? True

Debris? False

Object name: DFH-1

International designator: 1970-034A

Object number (NORAD): 4382

Object ID (CCSDS): 4382

Country: PEOPLES REPUBLIC OF CHINA (PRC)

Current information (Y/N): Y

RCS size: MEDIUM

Orbital parameters

Period: 109.622 minutes

Inclination: 68.4248 deg

SMA: 7587.385 km

Apoapsis: 1995.386 km

Periapsis: 423.113 km

RAAN: 181.5404 deg

Eccentricy: 0.10361101

Argument of periapsis: 192.6396 deg

Mean anomaly: 164.6754 deg

Mean motion: 13.13604457 rev/day

Mean motion (dot): 0.00000105 rev/day2

B* drag term: 0.000027168641 1/REarth

Two-line elements (TLE)

Creation date: Oct. 25, 2025, 3:11 a.m.

Reference frame: TEME

Reference center: EARTH

Epoch: Oct. 24, 2025, 10:28 p.m. UTC

TLE line 0: 0 DFH-1

TLE line 1: 1 04382U 70034A 25297.93652146 .00000105 00000-0 27169-4 0 9997

TLE line 2: 2 04382 68.4248 181.5404 1036110 192.6396 164.6754 13.13604457614774

Live tracking on map

Real-time ground track for satellite DFH-1.

In-orbit conjunctions

There are no conjunctions computed for DFH-1, at the moment. Check back to stay up to date, as we update our databases every day.

Go to all conjunctions

Associated space launch

Dong Fang Hong 1 (DFH-1) was the first Chinese satellite. This was the first satellite launched by China on its own booster, making China the fifth nation to put a spacecraft into orbit using its own rocket. The satellite was developed under the direction of Tsien Hsue-Shen, dean of the Chinese Academy of Space Technology (CAST). The experimental satellite was a nearly spherically shaped symmetrical 72-faced polyhedron with a 1-meter diameter. It was battery-powered and carried a radio transmitter. The primary mission was to broadcast the song "Dong Fang Hong", paying tribute to Chairman Mao, and to announce the time. A total of five identical satellites were built to have backups in case of launch failures. The first satellite launched successfully.

DFH-1 was lifted into orbit during the mission ‘Long March 1 | Dong Fang Hong 1’, on board a Long March 1 space rocket.

The launch took place on April 24, 1970, 1:35 p.m. from Launch Area 2A.

For more information about the launch, click the button.

Launch to space Long March 1 | Dong Fang Hong 1
Long March 1 | Dong Fang Hong 1

Agency: N/A

Status: Launch Successful

Launch date: April 24, 1970, 1:35 p.m. UTC

Rocket: Long March 1

Launch pad: Launch Area 2A

Location: Jiuquan Satellite Launch Center, People's Republic of China

...

Latest news about this satellite

There are no fresh news available about this satellite. Check back as we update our databases every day.


Newsletter sign-up

Weekly statistics, charts and insights to help you stay on top of the space industry.